This demonstration page uses our WeatherBlox Daily Observations layout. Learn more.

Left ArrowRight Arrow

39.92423, -83.80882

Hourly Observations for December 5, 2015

Temp ( °F °C ) Dew Point ( °F °C ) Humidity (%) Winds ( mph kmh ) Pressure ( in mb ) Visibility ( mi km ) Precip ( " mm )
12:56 am 00:56 Cloudy with Freezing Fog 25 -3.8 25 -3.8 100 100 Calm 30.68 1039 5 8.0467 0 0
1:56 am 01:56 Cloudy with Freezing Fog 25 -3.8 24 -4.4 96 96 Calm 30.68 1039 5 8.0467 0 0
2:56 am 02:56 Cloudy with Freezing Fog 24 -4.4 24 -4.4 100 100 Calm 30.69 1039 5 8.0467 0 0
3:56 am 03:56 Cloudy with Freezing Fog 24 -4.4 23 -5 96 96 E 3 6 30.7 1040 5 8.0467 0 0
4:56 am 04:56 Cloudy with Freezing Fog 23 -5 23 -5 100 100 ENE 3 6 30.71 1040 5 8.0467 0 0
5:37 am 05:37 Cloudy with Freezing Fog 23 -5 21 -6 93 93 E 5 7 30.77 1042 0.25 0.402335 0 0
5:56 am 05:56 Cloudy with Freezing Fog 23 -5 22 -5.5 96 96 E 5 7 30.71 1040 0.25 0.402335 0 0
6:56 am 06:56 Cloudy with Freezing Fog 23 -5 22 -5.5 96 96 Calm 30.73 1041 0.25 0.402335 0 0
7:56 am 07:56 Cloudy with Freezing Fog 23 -5 22 -5.5 96 96 SE 3 6 30.74 1041 5 8.0467 0 0
8:56 am 08:56 Cloudy with Freezing Fog 24 -4.4 23 -5 96 96 Calm 30.74 1041 5 8.0467 0 0
9:56 am 09:56 Cloudy with Freezing Fog 25 -3.8 25 -3.8 100 100 E 3 6 30.74 1041 5 8.0467 0 0
10:31 am 10:31 Cloudy with Freezing Fog 27 -3 27 -3 100 100 E 5 7 30.74 1041 0.25 0.402335 0 0
10:40 am 10:40 Cloudy with Freezing Fog 28 -2 28 -2 100 100 E 5 7 30.74 1041 0.5 0.80467 0 0
10:56 am 10:56 Cloudy with Freezing Fog 29 -1.6 29 -1.6 100 100 E 3 6 30.73 1041 0.5 0.80467 0 0
11:14 am 11:14 Cloudy with Freezing Fog 30 -1 30 -1 100 100 Calm 30.74 1041 0.25 0.402335 0 0
11:36 am 11:36 Cloudy with Freezing Fog 30 -1 30 -1 100 100 E 3 6 30.74 1041 0.5 0.80467 0 0
11:56 am 11:56 Cloudy with Fog 32 0 32 0 100 100 ESE 3 6 30.71 1040 0.25 0.402335 0 0
12:10 pm 12:10 Cloudy with Mist and Fog 32 0 32 0 100 100 SSE 5 7 30.71 1040 0.75 1.207005 0 0
12:13 pm 12:13 Cloudy with Mist and Fog 32 0 32 0 100 100 SSE 6 9 30.71 1040 1.25 2.011675 0 0
12:21 pm 12:21 Cloudy with Mist and Fog 34 1 34 1 100 100 SSE 5 7 30.71 1040 0.75 1.207005 0 0
12:29 pm 12:29 Cloudy with Fog 34 1 34 1 100 100 S 6 9 30.71 1040 0.5 0.80467 0 0
12:37 pm 12:37 Cloudy with Mist and Fog 34 1 34 1 100 100 SSE 3 6 30.71 1040 1 1.60934 0 0
12:40 pm 12:40 Cloudy with Mist and Fog 34 1 34 1 100 100 SE 5 7 30.71 1040 1.5 2.41401 0 0
12:56 pm 12:56 Cloudy with Mist and Fog 33 0.5 33 0.5 100 100 S 5 7 30.7 1040 1.25 2.011675 0 0
1:11 pm 13:11 Cloudy with Mist and Fog 34 1 34 1 100 100 VRB 3 6 30.71 1040 0.75 1.207005 0 0
1:19 pm 13:19 Cloudy with Fog 34 1 34 1 100 100 S 5 7 30.71 1040 0.5 0.80467 0 0
1:56 pm 13:56 Cloudy with Fog 35 1.6 35 1.6 100 100 VRB 6 9 30.67 1039 0.5 0.80467 0 0
2:28 pm 14:28 Cloudy with Mist and Fog 36 2 36 2 100 100 S 5 7 30.65 1038 0.75 1.207005 0 0
2:56 pm 14:56 Cloudy with Mist and Fog 35 1.6 35 1.6 100 100 SSE 3 6 30.66 1038 1 1.60934 0 0
3:02 pm 15:02 Cloudy with Fog 36 2 36 2 100 100 SE 5 7 30.65 1038 0.5 0.80467 0 0
3:11 pm 15:11 Cloudy with Fog 36 2 36 2 100 100 VRB 3 6 30.65 1038 0.25 0.402335 0 0
3:21 pm 15:21 Cloudy with Fog 36 2 36 2 100 100 Calm 30.65 1038 0.5 0.80467 0 0
3:46 pm 15:46 Cloudy with Mist and Fog 36 2 36 2 100 100 E 3 6 30.65 1038 0.75 1.207005 0 0
3:56 pm 15:56 Cloudy with Mist and Fog 35 1.6 35 1.6 100 100 ESE 5 7 30.66 1038 0.75 1.207005 0 0
4:03 pm 16:03 Cloudy with Fog 36 2 36 2 100 100 ESE 5 7 30.65 1038 0.5 0.80467 0 0
4:12 pm 16:12 Cloudy with Fog 36 2 36 2 100 100 ESE 7 11 30.65 1038 5 8.0467 0 0
4:56 pm 16:56 Cloudy with Fog 35 1.6 35 1.6 100 100 ESE 3 6 30.66 1038 5 8.0467 0 0
5:56 pm 17:56 Cloudy with Fog 34 1.1 34 1.1 100 100 E 7 11 30.65 1038 5 8.0467 0 0
6:56 pm 18:56 Cloudy with Fog 32 0 32 0 100 100 ESE 5 7 30.66 1038 5 8.0467 0 0
7:56 pm 19:56 Cloudy with Freezing Fog 31 -0.5 31 -0.5 100 100 E 7 11 30.65 1038 5 8.0467 0 0
8:42 pm 20:42 Cloudy with Freezing Fog 28 -2 28 -2 100 100 E 7 11 30.65 1038 0.25 0.402335 0 0
8:56 pm 20:56 Cloudy with Freezing Fog 29 -1.6 29 -1.6 100 100 E 6 9 30.63 1037 0.5 0.80467 0 0
9:09 pm 21:09 Mostly Cloudy with Mist and Fog 28 -2 28 -2 100 100 E 6 9 30.65 1038 1 1.60934 0 0
9:11 pm 21:11 Mostly Cloudy with Mist and Fog 28 -2 28 -2 100 100 E 6 9 30.65 1038 1.5 2.41401 0 0
9:15 pm 21:15 Partly Cloudy with Mist and Fog 28 -2 28 -2 100 100 E 6 9 30.65 1038 3 4.82802 0 0
9:56 pm 21:56 Clear 28 -2.2 28 -2.2 100 100 E 3 6 30.61 1037 7 11.26538 0 0
10:56 pm 22:56 Clear with Mist and Fog 30 -1.1 30 -1.1 100 100 Calm 30.6 1036 4 6.43736 0 0
11:27 pm 23:27 Clear with Mist and Fog 28 -2 28 -2 100 100 ESE 3 6 30.62 1037 2.5 4.02335 0 0
11:56 pm 23:56 Clear with Mist and Fog 28 -2.2 28 -2.2 100 100 E 5 7 30.59 1036 1 1.60934 0 0

Powered by AerisWeather